[[{"header":{"parameterUnit":"m.s-1","parameterCategory":1,"la1":30.2991,"la2":30.254,"lo1":-89.0895,"lo2":-89.0444,"dy":0.0017,"dx":0.0017,"nx":28,"ny":28,"refTime":"2024-08-08T09:00:00:Z","depth":0,"parameterNumber":2,"parameterNumberName":"U-component_of_WINDS"},"data":[0,0,0,0,0,0,0,0,0,0,0,0,0,0,0,0,0,0,0,0,0,0,0,0,0,0,0,0,0,0,0,0,0,0,0,0,0,0,0,0,0,0,0,0,0,0,0,0,0,0,0,0,0,0,0,0,0,0,0.168,0.168,0,0.1763,0.1764,0.1765,0.1883,0.1885,0.1887,0.1889,0.1973,0.1974,0.1974,0,0,0,0,0,0,0,0,0,0,0,0,0,0.1621,0.1621,0.1679,0.168,0.1682,0.1763,0.1764,0.1765,0.1883,0.1886,0.1888,0.189,0.1973,0.1974,0.1974,0,0,0,0,0,0,0,0,0,0,0,0,0,0.167,0.1622,0.1679,0.175,0.1757,0.1763,0.1764,0.1766,0.1883,0.1886,0.1889,0.1891,0.1973,0.1974,0.1974,0.1916,0,0,0.1976,0.1976,0,0,0,0,0,0,0,0,0.1667,0.1672,0.1739,0.1745,0.1753,0.1816,0.1775,0.1816,0.1882,0.1835,0.1889,0.1893,0.1918,0.1924,0.1933,0.192,0.1924,0.1976,0.1976,0.1976,0.1976,0,0,0,0,0,0,0,0.1663,0.1669,0.1713,0.1739,0.1748,0.1778,0.1788,0.1783,0.1858,0.1839,0.1848,0.1856,0.1923,0.1932,0.1935,0.1925,0.1976,0.1976,0.1976,0.1977,0.1871,0.1868,0,0,0,0,0,0,0.1649,0.1665,0.171,0.1715,0.1717,0.1776,0.1788,0.1793,0.1859,0.1872,0.1854,0.1862,0.1929,0.1935,0.1939,0.1876,0.1976,0.1977,0.1977,0.1874,0.1871,0.1867,0,0,0,0,0,0,0.1648,0.1652,0.1707,0.1693,0.1702,0.1774,0.1779,0.1793,0.1802,0.187,0.1884,0.1849,0.1932,0.1938,0.1922,0.188,0.1977,0.1977,0.1878,0.1873,0.1869,0.1749,0,0,0,0,0,0,0.1645,0.1651,0.163,0.1691,0.1702,0.1687,0.1776,0.1792,0.1803,0.1814,0.1869,0.1881,0.1935,0.192,0.1922,0.1883,0.1978,0.1882,0.1876,0.187,0.1756,0.174,0.1727,0,0,0,0,0,0.1643,0.1592,0.1628,0.1633,0.1677,0.1685,0.1691,0.1754,0.1799,0.1778,0.1822,0.1879,0.1885,0.1917,0.1921,0.1881,0.1885,0.1878,0.1871,0.1763,0.1744,0.1727,0,0,0,0,0,0,0.1522,0.1601,0.1642,0.1609,0.1639,0.1705,0.168,0.1731,0.1749,0.1758,0.1836,0.1848,0.1821,0.185,0.1885,0.1829,0.1894,0.1887,0.1811,0.1793,0.1778,0.1771,0.1978,0,0,0,0,0,0.1492,0.1492,0.1561,0.1525,0.1539,0.1606,0.1612,0.1659,0.1693,0.1706,0.1749,0.178,0.1789,0.1793,0.1805,0.1762,0.1776,0.1737,0.1722,0.1709,0.1702,0.1682,0.1665,0.1844,0.1844,0.1844,0,0,0.1429,0.1472,0.1467,0.1502,0.1531,0.1529,0.1616,0.161,0.161,0.1705,0.1692,0.1725,0.1765,0.1735,0.1724,0.1758,0.1656,0.17,0.169,0.1689,0.1673,0.1656,0.164,0.1839,0.184,0.1841,0,0,0.1312,0.1346,0.132,0.1347,0.1391,0.1437,0.143,0.1489,0.1514,0.1503,0.1574,0.1575,0.1589,0.1614,0.1629,0.1525,0.1578,0.1527,0.1448,0.1427,0.1413,0.1401,0.1363,0.1348,0.152,0.152,0.1519,0,0.1228,0.1228,0.13,0.129,0.1303,0.1391,0.1365,0.1389,0.1433,0.144,0.1479,0.1499,0.1532,0.1509,0.1484,0.1493,0.1488,0.1519,0.1409,0.1398,0.1388,0.1352,0.1338,0.1513,0.1514,0.1514,0.1515,0,0.1122,0.1122,0.1096,0.1137,0.1148,0.113,0.1199,0.1201,0.1248,0.129,0.1277,0.132,0.1343,0.1342,0.1386,0.1326,0.1345,0.1395,0.1461,0.1363,0.1331,0.1318,0.1503,0.1506,0.1508,0.1509,0,0,0.0929,0.1012,0.1001,0.1022,0.1077,0.1078,0.1065,0.1088,0.1088,0.1117,0.1107,0.1118,0.1165,0.1182,0.1231,0.1213,0.1127,0.1266,0.1268,0.1237,0.1063,0.1023,0.1006,0.1164,0.1162,0.116,0.1059,0,0.0822,0.0803,0.0868,0.0833,0.0833,0.0919,0.0907,0.094,0.098,0.0986,0.103,0.1036,0.1098,0.1109,0.1095,0.114,0.1093,0.1149,0.1155,0.1154,0.114,0.099,0.0948,0.0849,0.1047,0.1045,0.1043,0,0.0694,0.0716,0.0681,0.074,0.0743,0.0731,0.0758,0.0763,0.0802,0.0833,0.0852,0.091,0.0901,0.0966,0.0955,0.0992,0.0999,0.1022,0.102,0.1021,0.1091,0.0985,0.082,0.0804,0.1025,0.1026,0.1028,0,0.0554,0.0577,0.0559,0.0574,0.0642,0.0632,0.066,0.0703,0.0713,0.0737,0.0744,0.0766,0.0778,0.0794,0.0856,0.0898,0.0838,0.0908,0.0862,0.086,0.0843,0.0843,0.0675,0.0851,0.0851,0.0851,0.0851,0,0.0427,0.0401,0.0497,0.0485,0.046,0.0536,0.0509,0.0546,0.0583,0.0581,0.0657,0.0652,0.0736,0.0741,0.079,0.0774,0.0779,0.0802,0.0815,0.0794,0.0791,0.0798,0.0806,0.0847,0.0848,0.0849,0.085,0,0.0265,0.0329,0.0314,0.0381,0.0398,0.0376,0.0433,0.0425,0.0471,0.0467,0.047,0.0541,0.0552,0.0617,0.0641,0.0675,0.0639,0.0667,0.0626,0.0634,0.0583,0.0586,0.0412,0.0393,0.0582,0.058,0.0579,0,0.0178,0.0161,0.0227,0.0231,0.0255,0.0261,0.0272,0.0347,0.0355,0.04,0.0387,0.0404,0.0421,0.0434,0.0488,0.0508,0.0535,0.0473,0.0538,0.0518,0.0532,0.0532,0.053,0.0457,0.0455,0.0453,0.0452,0,0.0017,0.005,0.0063,0.0087,0.0099,0.0122,0.0149,0.0148,0.0231,0.0237,0.0249,0.0262,0.0289,0.0304,0.0334,0.0364,0.042,0.0431,0.0421,0.0398,0.0374,0.0385,0.0585,0.0434,0.0436,0.0437,0.0438,0.0439,-0.0111,-0.0122,-0.0077,-0.0065,-0.0036,-0.0011,-0.0015,0.0031,0.0042,0.007,0.0114,0.012,0.0162,0.0208,0.0233,0.0238,0.0272,0.0257,0.0253,0.0248,0.0237,0.0376,0.0244,0.0245,0.0245,0.0246,0.0246,0,-0.0269,-0.0236,-0.0225,-0.0188,-0.0178,-0.0123,-0.0089,-0.0084,-0.008,-0.0045,-0.0029,-0.0015,0.0001,0.0057,0.0079,0.0073,0.01,0.0076,0.0076,0.0082,0.0207,0.0212,0.0054,0.0054,0.0054,0.0054,0.0054,0.0054,-0.0351,-0.0367,-0.0329,-0.0329,-0.0295,-0.0288,-0.0274,-0.0251,-0.0223,-0.021,-0.0196,-0.0159,-0.0115,-0.0089,-0.0072,-0.0055,-0.0052,-0.0085,-0.006,0.0055,0.0073,0.009,0.0096,-0.0084,-0.0084,-0.0185,-0.0186,-0.0187]},{"header":{"parameterUnit":"m.s-1","parameterCategory":1,"la1":30.2991,"la2":30.254,"lo1":-89.0895,"lo2":-89.0444,"dy":0.0017,"dx":0.0017,"nx":28,"ny":28,"refTime":"2024-08-08T09:00:00:Z","depth":0,"parameterNumber":3,"parameterNumberName":"V-component_of_WINDS"},"data":[0,0,0,0,0,0,0,0,0,0,0,0,0,0,0,0,0,0,0,0,0,0,0,0,0,0,0,0,0,0,0,0,0,0,0,0,0,0,0,0,0,0,0,0,0,0,0,0,0,0,0,0,0,0,0,0,0,0,-3.394,-3.394,0,-3.394,-3.394,-3.394,-3.3827,-3.3824,-3.3821,-3.3818,-3.3821,-3.3824,-3.3827,0,0,0,0,0,0,0,0,0,0,0,0,0,-3.3843,-3.3846,-3.394,-3.394,-3.394,-3.394,-3.394,-3.394,-3.3828,-3.3824,-3.382,-3.3817,-3.382,-3.3824,-3.3827,0,0,0,0,0,0,0,0,0,0,0,0,0,-3.3869,-3.3846,-3.394,-3.3884,-3.3879,-3.394,-3.394,-3.394,-3.3828,-3.3824,-3.382,-3.3815,-3.3819,-3.3823,-3.3827,-3.3943,0,0,-3.3841,-3.3842,0,0,0,0,0,0,0,0,-3.3867,-3.3872,-3.3892,-3.3888,-3.3882,-3.3879,-3.3907,-3.3941,-3.383,-3.3848,-3.3818,-3.3813,-3.3844,-3.3846,-3.3856,-3.3943,-3.3943,-3.3841,-3.3843,-3.3845,-3.3847,0,0,0,0,0,0,0,-3.3866,-3.3872,-3.394,-3.3893,-3.3887,-3.3859,-3.3858,-3.3913,-3.3871,-3.3846,-3.3838,-3.3839,-3.3841,-3.3852,-3.3855,-3.3943,-3.3841,-3.3845,-3.3847,-3.3849,-3.4122,-3.4126,0,0,0,0,0,0,-3.3871,-3.3871,-3.394,-3.394,-3.3864,-3.3864,-3.3863,-3.3885,-3.387,-3.3864,-3.3843,-3.3834,-3.3847,-3.385,-3.3855,-3.3987,-3.3845,-3.3849,-3.3852,-3.4117,-3.4123,-3.4128,0,0,0,0,0,0,-3.387,-3.3879,-3.394,-3.3903,-3.3909,-3.3871,-3.3896,-3.3887,-3.3898,-3.3868,-3.386,-3.3862,-3.3844,-3.3849,-3.3921,-3.3986,-3.3851,-3.3855,-3.4112,-3.4119,-3.4125,-3.4254,0,0,0,0,0,0,-3.3868,-3.3879,-3.3922,-3.3905,-3.3911,-3.4006,-3.39,-3.389,-3.3905,-3.3894,-3.3884,-3.3878,-3.3841,-3.3915,-3.3925,-3.3989,-3.3858,-3.4106,-3.4115,-3.4123,-3.4244,-3.4265,-3.4282,0,0,0,0,0,-3.3864,-3.396,-3.3925,-3.3934,-3.3965,-3.401,-3.4014,-3.3968,-3.3911,-3.3954,-3.3934,-3.3878,-3.3977,-3.3924,-3.3934,-3.4,-3.4101,-3.4112,-3.4123,-3.4235,-3.4261,-3.4282,0,0,0,0,0,0,-3.3988,-3.3957,-3.3918,-3.4011,-3.4014,-3.3991,-3.4045,-3.3997,-3.4017,-3.4006,-3.3948,-3.3947,-3.4028,-3.4021,-3.3962,-3.4109,-3.4029,-3.4042,-3.4111,-3.4135,-3.4154,-3.4154,-3.3862,0,0,0,0,0,-3.4026,-3.4065,-3.4035,-3.412,-3.4123,-3.4084,-3.4102,-3.4066,-3.4068,-3.4069,-3.4054,-3.4058,-3.409,-3.4112,-3.414,-3.4242,-3.4238,-3.4292,-3.4312,-3.4328,-3.434,-3.4391,-3.4415,-3.4163,-3.4163,-3.4162,0,0,-3.4105,-3.4092,-3.4121,-3.4144,-3.4143,-3.4184,-3.4086,-3.4135,-3.4165,-3.4077,-3.4143,-3.4132,-3.4133,-3.422,-3.4258,-3.4217,-3.4408,-3.4341,-3.4354,-3.4357,-3.4405,-3.4429,-3.445,-3.417,-3.4169,-3.4167,0,0,-3.427,-3.4265,-3.4333,-3.4333,-3.433,-3.4303,-3.4319,-3.4303,-3.4292,-3.4358,-3.4292,-3.4327,-3.4383,-3.4385,-3.4394,-3.4556,-3.4505,-3.4567,-3.4668,-3.4719,-3.4738,-3.4756,-3.4813,-3.4834,-3.4579,-3.4579,-3.458,0,-3.4369,-3.4428,-3.4375,-3.4427,-3.4439,-3.4358,-3.4427,-3.4429,-3.4437,-3.4447,-3.44,-3.4467,-3.4462,-3.4548,-3.4587,-3.4597,-3.4613,-3.4568,-3.474,-3.4757,-3.4772,-3.4825,-3.4847,-3.4587,-3.4586,-3.4585,-3.4584,0,-3.4549,-3.459,-3.4646,-3.4653,-3.4671,-3.4731,-3.4687,-3.4712,-3.4673,-3.4651,-3.4717,-3.4708,-3.4731,-3.4749,-3.4713,-3.4829,-3.4803,-3.475,-3.4667,-3.4804,-3.4853,-3.4874,-3.4597,-3.4595,-3.4593,-3.4591,0,0,-3.4794,-3.4768,-3.4789,-3.479,-3.478,-3.4811,-3.4867,-3.4888,-3.4909,-3.4917,-3.4962,-3.501,-3.4958,-3.4968,-3.4932,-3.4977,-3.5104,-3.4917,-3.4916,-3.4951,-3.5229,-3.527,-3.5294,-3.5069,-3.5073,-3.5076,-3.5229,0,-3.4952,-3.5045,-3.4998,-3.5097,-3.5134,-3.5056,-3.5105,-3.5104,-3.5084,-3.5112,-3.509,-3.5124,-3.5055,-3.506,-3.5101,-3.508,-3.5159,-3.5068,-3.5111,-3.5113,-3.5113,-3.532,-3.5364,-3.5508,-3.5248,-3.5251,-3.5253,0,-3.5151,-3.5163,-3.5265,-3.5245,-3.5259,-3.5304,-3.5317,-3.5346,-3.5342,-3.5324,-3.5334,-3.5286,-3.5339,-3.5257,-3.5329,-3.5269,-3.5283,-3.5275,-3.5279,-3.5282,-3.5192,-3.5327,-3.5553,-3.5575,-3.5283,-3.5281,-3.5279,0,-3.5317,-3.536,-3.5426,-3.5429,-3.5408,-3.5441,-3.5434,-3.5426,-3.544,-3.5453,-3.5461,-3.5481,-3.5491,-3.5507,-3.5466,-3.541,-3.5543,-3.5458,-3.5529,-3.553,-3.5561,-3.556,-3.5792,-3.5571,-3.5571,-3.5571,-3.557,0,-3.5499,-3.5565,-3.55,-3.5541,-3.5611,-3.5555,-3.5627,-3.5611,-3.5604,-3.564,-3.5575,-3.5611,-3.5554,-3.5584,-3.5551,-3.5615,-3.5621,-3.5607,-3.5598,-3.5613,-3.5615,-3.5622,-3.5611,-3.5576,-3.5575,-3.5574,-3.5573,0,-3.5699,-3.5658,-3.5724,-3.5697,-3.5692,-3.5745,-3.5722,-3.5758,-3.5732,-3.5779,-3.5786,-3.5746,-3.5778,-3.5737,-3.5766,-3.5744,-3.583,-3.5806,-3.5831,-3.5824,-3.5897,-3.589,-3.6142,-3.6171,-3.5933,-3.5935,-3.5937,0,-3.5817,-3.5865,-3.5842,-3.586,-3.5856,-3.5888,-3.5901,-3.5847,-3.5864,-3.5862,-3.5899,-3.5924,-3.5942,-3.5995,-3.5969,-3.599,-3.5966,-3.6052,-3.5969,-3.5981,-3.5966,-3.5963,-3.5967,-3.607,-3.6073,-3.6075,-3.6077,0,-3.6032,-3.6008,-3.603,-3.6044,-3.6061,-3.607,-3.6074,-3.6093,-3.6037,-3.6059,-3.6089,-3.6102,-3.6129,-3.6155,-3.6168,-3.6161,-3.611,-3.6103,-3.612,-3.6136,-3.6148,-3.6142,-3.5877,-3.6098,-3.6096,-3.6094,-3.6093,-3.6092,-3.6194,-3.6232,-3.622,-3.6245,-3.6242,-3.6247,-3.6278,-3.6255,-3.6278,-3.6295,-3.6262,-3.63,-3.6293,-3.6305,-3.6304,-3.6333,-3.6295,-3.6321,-3.6327,-3.6334,-3.6345,-3.6144,-3.6335,-3.6334,-3.6334,-3.6333,-3.6333,0,-3.6404,-3.6392,-3.6416,-3.6421,-3.6441,-3.6388,-3.6389,-3.641,-3.6443,-3.644,-3.6458,-3.6491,-3.6515,-3.649,-3.6509,-3.6537,-3.6514,-3.6544,-3.6541,-3.654,-3.6378,-3.636,-3.6562,-3.6562,-3.6562,-3.6562,-3.6562,-3.6562,-3.6516,-3.6576,-3.6551,-3.6609,-3.6596,-3.6631,-3.6636,-3.6639,-3.6636,-3.6676,-3.6695,-3.6677,-3.6665,-3.6682,-3.6702,-3.6693,-3.6703,-3.6742,-3.6726,-3.6574,-3.6552,-3.6531,-3.6514,-3.6744,-3.6745,-3.6885,-3.6887,-3.6888]}]]